Weather History for Hanford, CA

Change the Weather History Date:

Friday, April 11, 2014

  Actual Average Record
Temperature  
Mean Temperature 74 °F 59 °F  
Max Temperature 89 °F 73 °F 89 °F (2014)
Min Temperature 58 °F 45 °F 44 °F (2008)
Degree Days  
Heating Degree Days 0    
Month to date heating degree days 61  
Since 1 July heating degree days 2013  
Cooling Degree Days 9    
Month to date cooling degree days 29  
Year to date cooling degree days 29  
Growing Degree Days 25 (Base 50)    
Moisture  
Dew Point 49 °F    
Average Humidity 45    
Maximum Humidity 72    
Minimum Humidity 18    
Precipitation  
Precipitation 0.00 in 0.02 in 0.68 in (2012)
Month to date precipitation T 0.28  
Year to date precipitation 2.23 5.68  
Since 1 July precipitation 2.62 9.02  
Snow  
Snow 0.00 in - - ()
Month to date snowfall 0.0  
Since 1 July snowfall 0.0  
Snow Depth 0.00 in    
Sea Level Pressure  
Sea Level Pressure 29.83 in    
Wind  
Wind Speed 6 mph (NW)    
Max Wind Speed 16 mph    
Max Gust Speed 20 mph    
Visibility 10 miles    
Events      
T = Trace of Precipitation, MM = Missing Value Source: NWS Daily Summary

Daily Weather History Graph

Daily Weather History Graph

Search for Another Location

Airport:

Trip Planner

Search our weather history database for the weather conditions in past years. The results will help you decide how hot, cold, wet, or windy it might be!

Date:

Astronomy

Apr. 11, 2014 Rise Set
Actual Time 6:30 AM PDT 7:29 PM PDT
Civil Twilight 6:04 AM PDT 7:55 PM PDT
Nautical Twilight 5:32 AM PDT 8:26 PM PDT
Astronomical Twilight 5:00 AM PDT 8:59 PM PDT
Moon 4:19 PM PDT (4/11) 4:22 AM PDT (4/11)
Length of Visible Light 13h 51m
Length of Day
12h 58m
Waxing Gibbous, 87% of the Moon is Illuminated
Apr 11
Waxing Gibbous
Apr 15
Full
Apr 22
Last Quarter
Apr 28
New
May 6
First Quarter

Hourly Weather History & Observations

Time (PDT) Temp. Dew Point Humidity Pressure Visibility Wind Dir Wind Speed Gust Speed Precip Events Conditions
12:53 AM 69.1 °F 52.0 °F 54% 29.91 in 10.0 mi West 3.5 mph - N/A   Clear
1:53 AM 66.9 °F 52.0 °F 59% 29.89 in 10.0 mi NW 5.8 mph - N/A   Clear
2:53 AM 66.0 °F 52.0 °F 60% 29.87 in 10.0 mi NW 6.9 mph - N/A   Clear
3:53 AM 66.0 °F 52.0 °F 60% 29.87 in 10.0 mi North 4.6 mph - N/A   Clear
4:53 AM 63.0 °F 52.0 °F 67% 29.86 in 10.0 mi NW 4.6 mph - N/A   Clear
5:53 AM 61.0 °F 51.1 °F 70% 29.86 in 10.0 mi NNW 5.8 mph - N/A   Clear
6:53 AM 61.0 °F 48.9 °F 64% 29.87 in 9.0 mi NNW 6.9 mph - N/A   Clear
7:53 AM 64.9 °F 50.0 °F 58% 29.88 in 10.0 mi NNW 10.4 mph - N/A   Clear
8:53 AM 68.0 °F 52.0 °F 56% 29.88 in 9.0 mi NNE 4.6 mph - N/A   Clear
9:53 AM 72.0 °F 51.1 °F 48% 29.89 in 9.0 mi Calm Calm - N/A   Clear
10:53 AM 78.1 °F 46.0 °F 32% 29.89 in 10.0 mi East 3.5 mph - N/A   Clear
11:53 AM 81.0 °F 48.0 °F 31% 29.87 in 10.0 mi Calm Calm - N/A   Clear
12:53 PM 82.9 °F 48.9 °F 31% 29.85 in 10.0 mi SE 4.6 mph - N/A   Clear
1:53 PM 87.1 °F 44.1 °F 22% 29.82 in 10.0 mi SSW 9.2 mph - N/A   Clear
2:53 PM 86.0 °F 42.1 °F 21% 29.80 in 10.0 mi Calm Calm - N/A   Clear
3:53 PM 89.1 °F 41.0 °F 19% 29.77 in 10.0 mi Variable 6.9 mph - N/A   Clear
4:53 PM 88.0 °F 42.1 °F 20% 29.75 in 10.0 mi WNW 8.1 mph - N/A   Clear
5:53 PM 87.1 °F 39.0 °F 18% 29.74 in 10.0 mi Variable 3.5 mph - N/A   Clear
6:53 PM 84.0 °F 45.0 °F 25% 29.74 in 10.0 mi North 5.8 mph - N/A   Clear
7:53 PM 79.0 °F 50.0 °F 36% 29.76 in 10.0 mi NW 12.7 mph - N/A   Clear
8:53 PM 75.0 °F 48.9 °F 40% 29.78 in 10.0 mi WNW 10.4 mph - N/A   Clear
9:53 PM 73.0 °F 51.1 °F 46% 29.80 in 10.0 mi NW 12.7 mph - N/A   Clear
10:53 PM 70.0 °F 54.0 °F 57% 29.80 in 10.0 mi WNW 9.2 mph - N/A   Clear
11:53 PM 68.0 °F 53.1 °F 59% 29.81 in 10.0 mi Calm Calm - N/A   Clear